Find Starlink 31414

NORAD ID: 59418 Int'l Des: 2024-064 Owner: SPXS Country: US Constellation: starlink operational
LEOCIRCULAR

当前视图

正在加载3D地球...

About Starlink 31414

Starlink 31414 (NORAD 59418) is a starlink constellation satellite (v2 mini) launched Apr 5, 2024 by SPXS of US. It operates in LEO, CIRCULAR orbit with a mass of 730.00 kg.

关于 Starlink 31414

正在加载描述...

即将过境

Passes for default location (London). Set your location on the main map for personalized predictions.

高度历史

Loading altitude history...

两行轨道根数

1 59418U 24064W 26173.49526912 .00000826 00000-0 39535-4 0 9995
2 59418 43.0019 184.3547 0001264 254.7956 105.2756 15.27580593125255
Epoch: Jun 22, 2026 • Age: 23 hours

当前状态

高度 484.8 km
速度 7.63 km/s
星下点 33.34°N, 113.22°W
发射日期 Apr 5, 2024
运行时间 2.2 years
类型 internet

技术详情

分类 Payload
质量 730.00 kg
干质量 700.00 kg
总质量 730.00 kg
长度 0.30 m
直径 4.10 m
跨度 29.00 m
形状 Box + pan
制造商 SPXS
平台类型 Starlink V2M
阶段状态 In Orbit
所有者/国家 SPXS/US

Most Searched